Location: Arboucave
(43.6130°N, 0.4343°W)
Time: 11:35:32
(UTC+00:00)

IRS-1C - Pass Details

Date: 17 November 2025
Orbit: 813 x 814 km, 99.0° (Epoch: 10 December)

Event Time Altitude Azimuth Distance (km) Brightness Sun altitude
Rises 17:35:30 0° 165° (SSE) 3,324 7.3 -11.1°
Reaches altitude 10° 17:37:50 10° 166° (SSE) 2,396 6.6 -11.5°
Maximum altitude 17:43:09 86° 255° (WSW) 823 4.2 -12.4°
Drops below altitude 10° 17:48:30 10° 345° (NNW) 2,412 6.6 -13.4°
Sets 17:50:51 0° 346° (NNW) 3,348 7.3 -13.8°
